KZ1X Weather Reports


Display with metric or nautical units.
time (UTC)temp
F
wind
direction
speed
MPH
gust
MPH
rain 1hr
in
rain 24hr
in
rain mn
in
humidity
%
barometer
mb
20260503001543 51 0 0.0 0.0 0.00 0.00 0.00 85 1013.2
20260503000037 52 0 0.0 0.0 0.00 0.00 0.00 81 1012.7
20260502234551 53 0 0.0 0.0 0.00 0.00 0.00 80 1012.4
20260502233041 53 0 0.0 0.0 0.00 0.00 0.00 77 1012.2
20260502231543 55 0 0.0 0.0 0.00 0.00 0.00 75 1012.0
20260502230041 56 0 0.0 0.0 0.00 0.00 0.00 72 1012.0
20260502224540 57 0 0.0 0.0 0.00 0.00 0.00 67 1011.9
20260502223037 56 0 0.0 0.0 0.00 0.00 0.00 69 1011.9
20260502221544 56 0 0.0 1.0 0.00 0.00 0.00 70 1011.8
20260502220053 56 0 0.0 1.0 0.00 0.00 0.00 72 1011.9
20260502214541 56 0 0.0 1.0 0.00 0.00 0.00 71 1011.8
20260502213042 57 0 0.0 3.0 0.00 0.00 0.00 71 1011.7
20260502211541 57 0 0.0 2.0 0.00 0.00 0.00 71 1011.7
20260502210052 57 209 0.0 2.0 0.00 0.00 0.00 71 1011.9
20260502204548 58 200 0.0 3.0 0.00 0.00 0.00 68 1011.8
20260502203057 58 0 0.0 3.0 0.00 0.00 0.00 69 1011.7
20260502201544 58 66 0.0 3.0 0.00 0.00 0.00 69 1011.7
20260502200041 58 210 0.0 1.0 0.00 0.00 0.00 71 1011.8
20260502194542 59 0 0.0 1.0 0.00 0.00 0.00 69 1011.7
20260502193037 59 0 0.0 1.0 0.00 0.00 0.00 73 1011.9
20260502191544 59 0 0.0 7.0 0.00 0.00 0.00 70 1012.0
20260502190045 59 0 0.0 1.0 0.00 0.00 0.00 70 1012.1
20260502184542 59 0 1.0 4.0 0.00 0.00 0.00 71 1012.2
20260502183050 59 0 0.0 3.0 0.00 0.00 0.00 71 1012.4
20260502181537 59 311 0.0 2.0 0.00 0.00 0.00 71 1012.6
20260502163054 57 143 0.0 4.0 0.00 0.00 0.00 79 1013.4
20260502161543 55 151 0.0 2.0 0.00 0.00 0.00 80 1013.9
20260502151539 55 96 0.0 4.0 0.00 0.00 0.00 82 1013.5
20260502123037 51 0 0.0 1.0 0.00 0.00 0.00 91 1013.3
20260502121539 51 229 0.0 1.0 0.00 0.00 0.00 92 1013.1
20260502114547 50 0 0.0 0.0 0.00 0.00 0.00 93 1013.2
20260502113037 50 0 0.0 0.0 0.00 0.00 0.00 93 1013.1
20260502111540 51 0 0.0 0.0 0.00 0.00 0.00 93 1012.7
20260502110041 51 0 0.0 0.0 0.00 0.00 0.00 92 1013.1
20260502104536 51 0 0.0 0.0 0.00 0.00 0.00 92 1013.1
20260502103033 51 0 0.0 0.0 0.00 0.00 0.00 93 1013.2
20260502101538 51 119 0.0 1.0 0.00 0.00 0.00 94 1013.3
20260502070050 50 0 0.0 0.0 0.00 0.00 0.00 95 1012.2
20260502064547 50 0 0.0 0.0 0.00 0.00 0.00 95 1012.1
20260502063040 50 0 0.0 0.0 0.00 0.00 0.00 94 1012.2
20260502061534 50 0 0.0 0.0 0.00 0.00 0.00 94 1012.2
20260502060044 50 0 0.0 0.0 0.00 0.00 0.00 95 1012.4
20260502054539 50 0 0.0 0.0 0.00 0.00 0.00 94 1012.4
20260502053042 50 0 0.0 0.0 0.00 0.00 0.00 94 1012.6
20260502051539 50 0 0.0 0.0 0.00 0.00 0.00 94 1012.8
20260502050037 50 0 0.0 0.0 0.00 0.00 0.00 94 1012.9
20260502044537 50 0 0.0 0.0 0.00 0.00 0.00 94 1013.0
20260502043050 50 0 0.0 0.0 0.00 0.00 0.00 94 1013.1
20260502041547 50 0 0.0 0.0 0.00 0.00 0.00 93 1013.1
20260502040041 50 0 0.0 0.0 0.00 0.00 0.00 93 1013.2
20260502034540 50 0 0.0 0.0 0.00 0.00 0.00 93 1013.4
20260502033041 50 0 0.0 0.0 0.00 0.00 0.00 93 1013.3
20260502031537 50 0 0.0 0.0 0.00 0.00 0.00 92 1013.3
20260502030038 50 0 0.0 0.0 0.00 0.00 0.00 91 1013.4
20260502024540 50 0 0.0 0.0 0.00 0.00 0.00 91 1013.6
20260502023035 51 0 0.0 0.0 0.00 0.00 0.00 91 1013.5
20260502021535 51 0 0.0 0.0 0.00 0.00 0.00 90 1013.5
20260502020044 52 0 0.0 0.0 0.00 0.00 0.00 89 1013.5
20260502014552 52 0 0.0 0.0 0.00 0.00 0.00 88 1013.6
20260502013037 52 0 0.0 0.0 0.00 0.00 0.00 88 1013.5
20260502011545 52 0 0.0 0.0 0.00 0.00 0.00 88 1013.3
20260502010036 52 0 0.0 0.0 0.00 0.00 0.00 87 1013.3
20260502004545 52 0 0.0 0.0 0.00 0.00 0.00 86 1013.2
20260502003042 53 0 0.0 0.0 0.00 0.00 0.00 84 1012.8